owner,sensor,date,latitude,longitude,vertical_datum,mass_concentration_of_oxygen_in_sea_water,qcFlag 
DISL,ioos:station:DISL:CATA:1,2017-03-01T00:00:00Z,30.3085,-88.1395,2.064,8.39,1111122 
DISL,ioos:station:DISL:CATA:1,2017-03-01T00:30:00Z,30.3085,-88.1395,2.062,8.16,1111122 
DISL,ioos:station:DISL:CATA:1,2017-03-01T01:00:00Z,30.3085,-88.1395,2.065,8.2,1111122 
DISL,ioos:station:DISL:CATA:1,2017-03-01T01:30:00Z,30.3085,-88.1395,2.083,8.11,1111122 
DISL,ioos:station:DISL:CATA:1,2017-03-01T02:00:00Z,30.3085,-88.1395,2.113,8.14,1111122 
DISL,ioos:station:DISL:CATA:1,2017-03-01T02:30:00Z,30.3085,-88.1395,2.143,8.15,1111122 
DISL,ioos:station:DISL:CATA:1,2017-03-01T03:00:00Z,30.3085,-88.1395,2.172,8.08,1111122 
DISL,ioos:station:DISL:CATA:1,2017-03-01T03:30:00Z,30.3085,-88.1395,2.186,7.99,1111122 
DISL,ioos:station:DISL:CATA:1,2017-03-01T04:00:00Z,30.3085,-88.1395,2.194,8.06,1111122 
DISL,ioos:station:DISL:CATA:1,2017-03-01T04:30:00Z,30.3085,-88.1395,2.201,8.02,1111122 
DISL,ioos:station:DISL:CATA:1,2017-03-01T05:00:00Z,30.3085,-88.1395,2.211,7.98,1111122 
DISL,ioos:station:DISL:CATA:1,2017-03-01T05:30:00Z,30.3085,-88.1395,2.226,7.91,1111122 
DISL,ioos:station:DISL:CATA:1,2017-03-01T06:00:00Z,30.3085,-88.1395,2.235,7.81,1111122 
DISL,ioos:station:DISL:CATA:1,2017-03-01T06:30:00Z,30.3085,-88.1395,2.241,7.84,1111122 
DISL,ioos:station:DISL:CATA:1,2017-03-01T07:00:00Z,30.3085,-88.1395,2.25,7.85,1111122 
DISL,ioos:station:DISL:CATA:1,2017-03-01T07:30:00Z,30.3085,-88.1395,2.263,7.79,1111122 
DISL,ioos:station:DISL:CATA:1,2017-03-01T08:00:00Z,30.3085,-88.1395,2.273,7.74,1111122 
DISL,ioos:station:DISL:CATA:1,2017-03-01T08:30:00Z,30.3085,-88.1395,2.266,7.54,1111122 
DISL,ioos:station:DISL:CATA:1,2017-03-01T09:00:00Z,30.3085,-88.1395,2.264,7.76,1111122 
DISL,ioos:station:DISL:CATA:1,2017-03-01T09:30:00Z,30.3085,-88.1395,2.258,7.71,1111122 
DISL,ioos:station:DISL:CATA:1,2017-03-01T10:00:00Z,30.3085,-88.1395,2.243,7.73,1111122 
DISL,ioos:station:DISL:CATA:1,2017-03-01T10:30:00Z,30.3085,-88.1395,2.224,7.57,1111122 
DISL,ioos:station:DISL:CATA:1,2017-03-01T11:00:00Z,30.3085,-88.1395,2.219,7.54,1111122 
DISL,ioos:station:DISL:CATA:1,2017-03-01T11:30:00Z,30.3085,-88.1395,2.224,6.81,1111122 
DISL,ioos:station:DISL:CATA:1,2017-03-01T12:00:00Z,30.3085,-88.1395,2.214,6.86,1111122 
DISL,ioos:station:DISL:CATA:1,2017-03-01T12:30:00Z,30.3085,-88.1395,2.193,7.58,1111122 
DISL,ioos:station:DISL:CATA:1,2017-03-01T13:00:00Z,30.3085,-88.1395,2.186,7.69,1111122 
DISL,ioos:station:DISL:CATA:1,2017-03-01T13:30:00Z,30.3085,-88.1395,2.191,7.62,1111122 
DISL,ioos:station:DISL:CATA:1,2017-03-01T14:00:00Z,30.3085,-88.1395,2.188,7.55,1111122 
DISL,ioos:station:DISL:CATA:1,2017-03-01T14:30:00Z,30.3085,-88.1395,2.18,7.41,1111122 
DISL,ioos:station:DISL:CATA:1,2017-03-01T15:00:00Z,30.3085,-88.1395,2.177,7.28,1111122 
DISL,ioos:station:DISL:CATA:1,2017-03-01T15:30:00Z,30.3085,-88.1395,2.161,7.24,1111122 
DISL,ioos:station:DISL:CATA:1,2017-03-01T16:00:00Z,30.3085,-88.1395,2.149,7.52,1111122 
DISL,ioos:station:DISL:CATA:1,2017-03-01T16:30:00Z,30.3085,-88.1395,2.15,7.78,1111122 
DISL,ioos:station:DISL:CATA:1,2017-03-01T17:00:00Z,30.3085,-88.1395,2.136,7.9,1111122 
DISL,ioos:station:DISL:CATA:1,2017-03-01T17:30:00Z,30.3085,-88.1395,2.142,8.07,1111122 
DISL,ioos:station:DISL:CATA:1,2017-03-01T18:00:00Z,30.3085,-88.1395,2.138,8.17,1111122 
DISL,ioos:station:DISL:CATA:1,2017-03-01T18:30:00Z,30.3085,-88.1395,2.15,8.17,1111122 
DISL,ioos:station:DISL:CATA:1,2017-03-01T19:00:00Z,30.3085,-88.1395,2.141,7.26,1111122 
DISL,ioos:station:DISL:CATA:1,2017-03-01T19:30:00Z,30.3085,-88.1395,2.164,7.8,1111122 
DISL,ioos:station:DISL:CATA:1,2017-03-01T20:00:00Z,30.3085,-88.1395,2.162,8.43,1111122 
DISL,ioos:station:DISL:CATA:1,2017-03-01T20:30:00Z,30.3085,-88.1395,2.146,8.74,1111122 
DISL,ioos:station:DISL:CATA:1,2017-03-01T21:00:00Z,30.3085,-88.1395,2.141,8.85,1111122 
DISL,ioos:station:DISL:CATA:1,2017-03-01T21:30:00Z,30.3085,-88.1395,2.135,8.72,1111122 
DISL,ioos:station:DISL:CATA:1,2017-03-01T22:00:00Z,30.3085,-88.1395,2.119,8.73,1111122 
DISL,ioos:station:DISL:CATA:1,2017-03-01T22:30:00Z,30.3085,-88.1395,2.115,8.77,1111122 
DISL,ioos:station:DISL:CATA:1,2017-03-01T23:00:00Z,30.3085,-88.1395,2.105,8.48,1111122 
DISL,ioos:station:DISL:CATA:1,2017-03-01T23:30:00Z,30.3085,-88.1395,2.092,8.05,1111122 
DISL,ioos:station:DISL:CATA:1,2017-03-02T00:00:00Z,30.3085,-88.1395,2.096,8.23,1111122 
DISL,ioos:station:DISL:CATA:1,2017-03-02T00:30:00Z,30.3085,-88.1395,2.091,7.86,1111122 
DISL,ioos:station:DISL:CATA:1,2017-03-02T01:00:00Z,30.3085,-88.1395,2.075,7.75,1111122 
DISL,ioos:station:DISL:CATA:1,2017-03-02T01:30:00Z,30.3085,-88.1395,2.076,8.21,1111122 
DISL,ioos:station:DISL:CATA:1,2017-03-02T02:00:00Z,30.3085,-88.1395,2.083,8.36,1111122 
DISL,ioos:station:DISL:CATA:1,2017-03-02T02:30:00Z,30.3085,-88.1395,2.1,7.96,1111122 
DISL,ioos:station:DISL:CATA:1,2017-03-02T03:00:00Z,30.3085,-88.1395,2.115,7.23,1111122 
DISL,ioos:station:DISL:CATA:1,2017-03-02T03:30:00Z,30.3085,-88.1395,2.131,7.89,1111122 
DISL,ioos:station:DISL:CATA:1,2017-03-02T04:00:00Z,30.3085,-88.1395,2.139,8.04,1111122 
DISL,ioos:station:DISL:CATA:1,2017-03-02T04:30:00Z,30.3085,-88.1395,2.163,7.83,1111122 
DISL,ioos:station:DISL:CATA:1,2017-03-02T05:00:00Z,30.3085,-88.1395,2.198,7.8,1111122 
DISL,ioos:station:DISL:CATA:1,2017-03-02T05:30:00Z,30.3085,-88.1395,2.119,7.87,1111122 
DISL,ioos:station:DISL:CATA:1,2017-03-02T06:00:00Z,30.3085,-88.1395,2.059,7.77,1111122 
DISL,ioos:station:DISL:CATA:1,2017-03-02T06:30:00Z,30.3085,-88.1395,2.039,7.61,1111122 
DISL,ioos:station:DISL:CATA:1,2017-03-02T07:00:00Z,30.3085,-88.1395,2.016,7.88,1111122 
DISL,ioos:station:DISL:CATA:1,2017-03-02T07:30:00Z,30.3085,-88.1395,1.997,7.74,1111122 
DISL,ioos:station:DISL:CATA:1,2017-03-02T08:00:00Z,30.3085,-88.1395,1.977,7.81,1111122 
DISL,ioos:station:DISL:CATA:1,2017-03-02T08:30:00Z,30.3085,-88.1395,1.966,7.93,1111122 
DISL,ioos:station:DISL:CATA:1,2017-03-02T09:00:00Z,30.3085,-88.1395,1.932,7.91,1111122 
DISL,ioos:station:DISL:CATA:1,2017-03-02T09:30:00Z,30.3085,-88.1395,1.931,7.88,1111122 
DISL,ioos:station:DISL:CATA:1,2017-03-02T10:00:00Z,30.3085,-88.1395,1.923,7.86,1111122 
DISL,ioos:station:DISL:CATA:1,2017-03-02T10:30:00Z,30.3085,-88.1395,1.944,7.87,1111122 
DISL,ioos:station:DISL:CATA:1,2017-03-02T11:00:00Z,30.3085,-88.1395,1.971,7.86,1111122 
DISL,ioos:station:DISL:CATA:1,2017-03-02T11:30:00Z,30.3085,-88.1395,1.948,7.84,1111122 
DISL,ioos:station:DISL:CATA:1,2017-03-02T12:00:00Z,30.3085,-88.1395,1.946,7.77,1111122 
DISL,ioos:station:DISL:CATA:1,2017-03-02T12:30:00Z,30.3085,-88.1395,1.939,7.81,1111122 
DISL,ioos:station:DISL:CATA:1,2017-03-02T13:00:00Z,30.3085,-88.1395,1.938,7.88,1111122 
DISL,ioos:station:DISL:CATA:1,2017-03-02T13:30:00Z,30.3085,-88.1395,1.918,7.9,1111122 
DISL,ioos:station:DISL:CATA:1,2017-03-02T14:00:00Z,30.3085,-88.1395,1.915,7.95,1111122 
DISL,ioos:station:DISL:CATA:1,2017-03-02T14:30:00Z,30.3085,-88.1395,1.915,7.97,1111122 
DISL,ioos:station:DISL:CATA:1,2017-03-02T15:00:00Z,30.3085,-88.1395,1.926,8.02,1111122 
DISL,ioos:station:DISL:CATA:1,2017-03-02T15:30:00Z,30.3085,-88.1395,1.941,8.06,1111122 
DISL,ioos:station:DISL:CATA:1,2017-03-02T16:00:00Z,30.3085,-88.1395,1.98,7.99,1111122 
DISL,ioos:station:DISL:CATA:1,2017-03-02T16:30:00Z,30.3085,-88.1395,1.998,7.56,1111122 
DISL,ioos:station:DISL:CATA:1,2017-03-02T17:00:00Z,30.3085,-88.1395,1.993,7.65,1111122 
DISL,ioos:station:DISL:CATA:1,2017-03-02T17:30:00Z,30.3085,-88.1395,1.987,7.95,1111122 
DISL,ioos:station:DISL:CATA:1,2017-03-02T18:00:00Z,30.3085,-88.1395,1.994,8.02,1111122 
DISL,ioos:station:DISL:CATA:1,2017-03-02T18:30:00Z,30.3085,-88.1395,2.009,8.71,1111122 
DISL,ioos:station:DISL:CATA:1,2017-03-02T19:00:00Z,30.3085,-88.1395,2.032,8.52,1111122 
DISL,ioos:station:DISL:CATA:1,2017-03-02T19:30:00Z,30.3085,-88.1395,2.054,8.46,1111122 
DISL,ioos:station:DISL:CATA:1,2017-03-02T20:00:00Z,30.3085,-88.1395,2.062,8.36,1111122 
DISL,ioos:station:DISL:CATA:1,2017-03-02T20:30:00Z,30.3085,-88.1395,2.077,8.42,1111122 
DISL,ioos:station:DISL:CATA:1,2017-03-02T21:00:00Z,30.3085,-88.1395,2.097,8.29,1111122 
DISL,ioos:station:DISL:CATA:1,2017-03-02T21:30:00Z,30.3085,-88.1395,2.102,8.19,1111122 
DISL,ioos:station:DISL:CATA:1,2017-03-02T22:00:00Z,30.3085,-88.1395,2.067,8.31,1111122 
DISL,ioos:station:DISL:CATA:1,2017-03-02T22:30:00Z,30.3085,-88.1395,2.055,8.17,1111122 
DISL,ioos:station:DISL:CATA:1,2017-03-02T23:00:00Z,30.3085,-88.1395,2.039,8.16,1111122 
DISL,ioos:station:DISL:CATA:1,2017-03-02T23:30:00Z,30.3085,-88.1395,2.028,8.51,1111122 
DISL,ioos:station:DISL:CATA:1,2017-03-03T00:00:00Z,30.3085,-88.1395,2.001,8.47,1111122 
DISL,ioos:station:DISL:CATA:1,2017-03-03T00:30:00Z,30.3085,-88.1395,1.979,8.6,1111122 
DISL,ioos:station:DISL:CATA:1,2017-03-03T01:00:00Z,30.3085,-88.1395,1.952,8.62,1111122 
DISL,ioos:station:DISL:CATA:1,2017-03-03T01:30:00Z,30.3085,-88.1395,1.9,8.68,1111122 
DISL,ioos:station:DISL:CATA:1,2017-03-03T02:00:00Z,30.3085,-88.1395,1.868,8.62,1111122 
DISL,ioos:station:DISL:CATA:1,2017-03-03T02:30:00Z,30.3085,-88.1395,1.861,8.5,1111122 
DISL,ioos:station:DISL:CATA:1,2017-03-03T03:00:00Z,30.3085,-88.1395,1.872,8.36,1111122 
DISL,ioos:station:DISL:CATA:1,2017-03-03T03:30:00Z,30.3085,-88.1395,1.87,8.21,1111122 
DISL,ioos:station:DISL:CATA:1,2017-03-03T04:00:00Z,30.3085,-88.1395,1.867,8.12,1111122 
DISL,ioos:station:DISL:CATA:1,2017-03-03T04:30:00Z,30.3085,-88.1395,1.846,8.04,1111122 
DISL,ioos:station:DISL:CATA:1,2017-03-03T05:00:00Z,30.3085,-88.1395,1.818,8.02,1111122 
DISL,ioos:station:DISL:CATA:1,2017-03-03T05:30:00Z,30.3085,-88.1395,1.808,8.06,1111122 
DISL,ioos:station:DISL:CATA:1,2017-03-03T06:00:00Z,30.3085,-88.1395,1.801,8.13,1111122 
DISL,ioos:station:DISL:CATA:1,2017-03-03T06:30:00Z,30.3085,-88.1395,1.779,8.14,1111122 
DISL,ioos:station:DISL:CATA:1,2017-03-03T07:00:00Z,30.3085,-88.1395,1.764,8.18,1111122 
DISL,ioos:station:DISL:CATA:1,2017-03-03T07:30:00Z,30.3085,-88.1395,1.765,8.19,1111122 
DISL,ioos:station:DISL:CATA:1,2017-03-03T08:00:00Z,30.3085,-88.1395,1.776,8.19,1111122 
DISL,ioos:station:DISL:CATA:1,2017-03-03T08:30:00Z,30.3085,-88.1395,1.797,8.12,1111122 
DISL,ioos:station:DISL:CATA:1,2017-03-03T09:00:00Z,30.3085,-88.1395,1.812,8.08,1111122 
DISL,ioos:station:DISL:CATA:1,2017-03-03T09:30:00Z,30.3085,-88.1395,1.826,8.02,1111122 
DISL,ioos:station:DISL:CATA:1,2017-03-03T10:00:00Z,30.3085,-88.1395,1.829,7.87,1111122 
DISL,ioos:station:DISL:CATA:1,2017-03-03T10:30:00Z,30.3085,-88.1395,1.837,7.2,1111122 
DISL,ioos:station:DISL:CATA:1,2017-03-03T11:00:00Z,30.3085,-88.1395,1.837,6.76,1111122 
DISL,ioos:station:DISL:CATA:1,2017-03-03T11:30:00Z,30.3085,-88.1395,1.846,7.12,1111122 
DISL,ioos:station:DISL:CATA:1,2017-03-03T12:00:00Z,30.3085,-88.1395,1.836,7.65,1111122 
DISL,ioos:station:DISL:CATA:1,2017-03-03T12:30:00Z,30.3085,-88.1395,1.818,8.18,1111122 
DISL,ioos:station:DISL:CATA:1,2017-03-03T13:00:00Z,30.3085,-88.1395,1.811,8.26,1111122 
DISL,ioos:station:DISL:CATA:1,2017-03-03T13:30:00Z,30.3085,-88.1395,1.804,8.53,1111122 
DISL,ioos:station:DISL:CATA:1,2017-03-03T14:00:00Z,30.3085,-88.1395,1.811,8.38,1111122 
DISL,ioos:station:DISL:CATA:1,2017-03-03T14:30:00Z,30.3085,-88.1395,1.841,8.46,1111122 
DISL,ioos:station:DISL:CATA:1,2017-03-03T15:00:00Z,30.3085,-88.1395,1.882,8.43,1111122 
DISL,ioos:station:DISL:CATA:1,2017-03-03T15:30:00Z,30.3085,-88.1395,1.9,8.37,1111122 
DISL,ioos:station:DISL:CATA:1,2017-03-03T16:00:00Z,30.3085,-88.1395,1.92,7.77,1111122 
DISL,ioos:station:DISL:CATA:1,2017-03-03T16:30:00Z,30.3085,-88.1395,1.956,8.31,1111122 
DISL,ioos:station:DISL:CATA:1,2017-03-03T17:00:00Z,30.3085,-88.1395,1.979,8.49,1111122 
DISL,ioos:station:DISL:CATA:1,2017-03-03T17:30:00Z,30.3085,-88.1395,2.001,8.67,1111122 
DISL,ioos:station:DISL:CATA:1,2017-03-03T18:00:00Z,30.3085,-88.1395,2.02,8.95,1111122 
DISL,ioos:station:DISL:CATA:1,2017-03-03T18:30:00Z,30.3085,-88.1395,2.043,8.77,1111122 
DISL,ioos:station:DISL:CATA:1,2017-03-03T19:00:00Z,30.3085,-88.1395,2.059,9.11,1111122 
DISL,ioos:station:DISL:CATA:1,2017-03-03T19:30:00Z,30.3085,-88.1395,2.063,9.36,1111122 
DISL,ioos:station:DISL:CATA:1,2017-03-03T20:00:00Z,30.3085,-88.1395,2.07,9.8,1111122 
DISL,ioos:station:DISL:CATA:1,2017-03-03T20:30:00Z,30.3085,-88.1395,2.068,9.82,1111122 
DISL,ioos:station:DISL:CATA:1,2017-03-03T21:00:00Z,30.3085,-88.1395,2.057,9.73,1111122 
DISL,ioos:station:DISL:CATA:1,2017-03-03T21:30:00Z,30.3085,-88.1395,2.067,9.52,1111122 
DISL,ioos:station:DISL:CATA:1,2017-03-03T22:00:00Z,30.3085,-88.1395,2.063,8.98,1111122 
DISL,ioos:station:DISL:CATA:1,2017-03-03T22:30:00Z,30.3085,-88.1395,2.06,9.63,1111122 
DISL,ioos:station:DISL:CATA:1,2017-03-03T23:00:00Z,30.3085,-88.1395,2.052,9.69,1111122 
DISL,ioos:station:DISL:CATA:1,2017-03-03T23:30:00Z,30.3085,-88.1395,2.037,9.37,1111122 
DISL,ioos:station:DISL:CATA:1,2017-03-04T00:00:00Z,30.3085,-88.1395,2.021,9.03,1111122 
DISL,ioos:station:DISL:CATA:1,2017-03-04T00:30:00Z,30.3085,-88.1395,1.99,9.03,1111122 
DISL,ioos:station:DISL:CATA:1,2017-03-04T01:00:00Z,30.3085,-88.1395,1.952,9.03,1111122 
DISL,ioos:station:DISL:CATA:1,2017-03-04T01:30:00Z,30.3085,-88.1395,1.919,8.99,1111122 
DISL,ioos:station:DISL:CATA:1,2017-03-04T02:00:00Z,30.3085,-88.1395,1.878,8.92,1111122 
DISL,ioos:station:DISL:CATA:1,2017-03-04T02:30:00Z,30.3085,-88.1395,1.846,8.83,1111122 
DISL,ioos:station:DISL:CATA:1,2017-03-04T03:00:00Z,30.3085,-88.1395,1.812,8.81,1111122 
DISL,ioos:station:DISL:CATA:1,2017-03-04T03:30:00Z,30.3085,-88.1395,1.787,8.88,1111122 
DISL,ioos:station:DISL:CATA:1,2017-03-04T04:00:00Z,30.3085,-88.1395,1.774,8.82,1111122 
DISL,ioos:station:DISL:CATA:1,2017-03-04T04:30:00Z,30.3085,-88.1395,1.757,8.89,1111122 
DISL,ioos:station:DISL:CATA:1,2017-03-04T05:00:00Z,30.3085,-88.1395,1.757,8.9,1111122 
DISL,ioos:station:DISL:CATA:1,2017-03-04T05:30:00Z,30.3085,-88.1395,1.762,8.88,1111122 
DISL,ioos:station:DISL:CATA:1,2017-03-04T06:00:00Z,30.3085,-88.1395,1.77,8.86,1111122 
DISL,ioos:station:DISL:CATA:1,2017-03-04T06:30:00Z,30.3085,-88.1395,1.782,8.8,1111122 
DISL,ioos:station:DISL:CATA:1,2017-03-04T07:00:00Z,30.3085,-88.1395,1.778,8.78,1111122 
DISL,ioos:station:DISL:CATA:1,2017-03-04T07:30:00Z,30.3085,-88.1395,1.771,8.79,1111122 
DISL,ioos:station:DISL:CATA:1,2017-03-04T08:00:00Z,30.3085,-88.1395,1.761,8.78,1111122 
DISL,ioos:station:DISL:CATA:1,2017-03-04T08:30:00Z,30.3085,-88.1395,1.772,8.76,1111122 
DISL,ioos:station:DISL:CATA:1,2017-03-04T09:00:00Z,30.3085,-88.1395,1.771,8.76,1111122 
DISL,ioos:station:DISL:CATA:1,2017-03-04T09:30:00Z,30.3085,-88.1395,1.779,8.76,1111122 
DISL,ioos:station:DISL:CATA:1,2017-03-04T10:00:00Z,30.3085,-88.1395,1.777,8.78,1111122 
DISL,ioos:station:DISL:CATA:1,2017-03-04T10:30:00Z,30.3085,-88.1395,1.787,8.79,1111122 
DISL,ioos:station:DISL:CATA:1,2017-03-04T11:00:00Z,30.3085,-88.1395,1.793,8.79,1111122 
DISL,ioos:station:DISL:CATA:1,2017-03-04T11:30:00Z,30.3085,-88.1395,1.808,8.8,1111122 
DISL,ioos:station:DISL:CATA:1,2017-03-04T12:00:00Z,30.3085,-88.1395,1.806,8.82,1111122 
DISL,ioos:station:DISL:CATA:1,2017-03-04T12:30:00Z,30.3085,-88.1395,1.817,8.82,1111122 
DISL,ioos:station:DISL:CATA:1,2017-03-04T13:00:00Z,30.3085,-88.1395,1.82,8.86,1111122 
DISL,ioos:station:DISL:CATA:1,2017-03-04T13:30:00Z,30.3085,-88.1395,1.831,8.87,1111122 
DISL,ioos:station:DISL:CATA:1,2017-03-04T14:00:00Z,30.3085,-88.1395,1.842,8.85,1111122 
DISL,ioos:station:DISL:CATA:1,2017-03-04T14:30:00Z,30.3085,-88.1395,1.851,8.83,1111122 
DISL,ioos:station:DISL:CATA:1,2017-03-04T15:00:00Z,30.3085,-88.1395,1.874,8.82,1111122 
DISL,ioos:station:DISL:CATA:1,2017-03-04T15:30:00Z,30.3085,-88.1395,1.902,8.8,1111122 
DISL,ioos:station:DISL:CATA:1,2017-03-04T16:00:00Z,30.3085,-88.1395,1.926,8.72,1111122 
DISL,ioos:station:DISL:CATA:1,2017-03-04T16:30:00Z,30.3085,-88.1395,1.952,8.64,1111122 
DISL,ioos:station:DISL:CATA:1,2017-03-04T17:00:00Z,30.3085,-88.1395,1.981,8.61,1111122 
DISL,ioos:station:DISL:CATA:1,2017-03-04T17:30:00Z,30.3085,-88.1395,2.014,8.52,1111122 
DISL,ioos:station:DISL:CATA:1,2017-03-04T18:00:00Z,30.3085,-88.1395,2.032,7.78,1111122 
DISL,ioos:station:DISL:CATA:1,2017-03-04T18:30:00Z,30.3085,-88.1395,2.055,8.28,1111122 
DISL,ioos:station:DISL:CATA:1,2017-03-04T19:00:00Z,30.3085,-88.1395,2.067,8.49,1111122 
DISL,ioos:station:DISL:CATA:1,2017-03-04T19:30:00Z,30.3085,-88.1395,2.072,8.64,1111122 
DISL,ioos:station:DISL:CATA:1,2017-03-04T20:00:00Z,30.3085,-88.1395,2.072,8.53,1111122 
DISL,ioos:station:DISL:CATA:1,2017-03-04T20:30:00Z,30.3085,-88.1395,2.088,8.59,1111122 
DISL,ioos:station:DISL:CATA:1,2017-03-04T21:00:00Z,30.3085,-88.1395,2.088,8.4,1111122 
DISL,ioos:station:DISL:CATA:1,2017-03-04T21:30:00Z,30.3085,-88.1395,2.082,8.72,1111122 
DISL,ioos:station:DISL:CATA:1,2017-03-04T22:00:00Z,30.3085,-88.1395,2.081,8.65,1111122 
DISL,ioos:station:DISL:CATA:1,2017-03-04T22:30:00Z,30.3085,-88.1395,2.082,8.79,1111122 
DISL,ioos:station:DISL:CATA:1,2017-03-04T23:00:00Z,30.3085,-88.1395,2.093,8.81,1111122 
DISL,ioos:station:DISL:CATA:1,2017-03-04T23:30:00Z,30.3085,-88.1395,2.094,8.84,1111122 
DISL,ioos:station:DISL:CATA:1,2017-03-05T00:00:00Z,30.3085,-88.1395,2.07,8.77,1111122 
DISL,ioos:station:DISL:CATA:1,2017-03-05T00:30:00Z,30.3085,-88.1395,2.043,8.79,1111122 
DISL,ioos:station:DISL:CATA:1,2017-03-05T01:00:00Z,30.3085,-88.1395,2.006,8.88,1111122 
DISL,ioos:station:DISL:CATA:1,2017-03-05T01:30:00Z,30.3085,-88.1395,1.962,8.87,1111122 
DISL,ioos:station:DISL:CATA:1,2017-03-05T02:00:00Z,30.3085,-88.1395,1.935,9.0,1111122 
DISL,ioos:station:DISL:CATA:1,2017-03-05T02:30:00Z,30.3085,-88.1395,1.902,8.82,1111122 
DISL,ioos:station:DISL:CATA:1,2017-03-05T03:00:00Z,30.3085,-88.1395,1.876,8.9,1111122 
DISL,ioos:station:DISL:CATA:1,2017-03-05T03:30:00Z,30.3085,-88.1395,1.853,8.88,1111122 
DISL,ioos:station:DISL:CATA:1,2017-03-05T04:00:00Z,30.3085,-88.1395,1.829,8.9,1111122 
DISL,ioos:station:DISL:CATA:1,2017-03-05T04:30:00Z,30.3085,-88.1395,1.819,8.84,1111122 
DISL,ioos:station:DISL:CATA:1,2017-03-05T05:00:00Z,30.3085,-88.1395,1.812,8.85,1111122 
DISL,ioos:station:DISL:CATA:1,2017-03-05T05:30:00Z,30.3085,-88.1395,1.803,8.82,1111122 
DISL,ioos:station:DISL:CATA:1,2017-03-05T06:00:00Z,30.3085,-88.1395,1.788,8.79,1111122 
DISL,ioos:station:DISL:CATA:1,2017-03-05T06:30:00Z,30.3085,-88.1395,1.769,8.77,1111122 
DISL,ioos:station:DISL:CATA:1,2017-03-05T07:00:00Z,30.3085,-88.1395,1.762,8.74,1111122 
DISL,ioos:station:DISL:CATA:1,2017-03-05T07:30:00Z,30.3085,-88.1395,1.762,8.75,1111122 
DISL,ioos:station:DISL:CATA:1,2017-03-05T08:00:00Z,30.3085,-88.1395,1.76,8.41,1111122 
DISL,ioos:station:DISL:CATA:1,2017-03-05T08:30:00Z,30.3085,-88.1395,1.761,8.31,1111122 
DISL,ioos:station:DISL:CATA:1,2017-03-05T09:00:00Z,30.3085,-88.1395,1.751,8.32,1111122 
DISL,ioos:station:DISL:CATA:1,2017-03-05T09:30:00Z,30.3085,-88.1395,1.74,8.4,1111122 
DISL,ioos:station:DISL:CATA:1,2017-03-05T10:00:00Z,30.3085,-88.1395,1.757,8.55,1111122 
DISL,ioos:station:DISL:CATA:1,2017-03-05T10:30:00Z,30.3085,-88.1395,1.774,8.58,1111122 
DISL,ioos:station:DISL:CATA:1,2017-03-05T11:00:00Z,30.3085,-88.1395,1.798,8.58,1111122 
DISL,ioos:station:DISL:CATA:1,2017-03-05T11:30:00Z,30.3085,-88.1395,1.824,8.63,1111122 
DISL,ioos:station:DISL:CATA:1,2017-03-05T12:00:00Z,30.3085,-88.1395,1.856,8.61,1111122 
DISL,ioos:station:DISL:CATA:1,2017-03-05T12:30:00Z,30.3085,-88.1395,1.886,8.65,1111122 
DISL,ioos:station:DISL:CATA:1,2017-03-05T13:00:00Z,30.3085,-88.1395,1.916,8.52,1111122 
DISL,ioos:station:DISL:CATA:1,2017-03-05T13:30:00Z,30.3085,-88.1395,1.945,7.85,1111122 
DISL,ioos:station:DISL:CATA:1,2017-03-05T14:00:00Z,30.3085,-88.1395,1.988,8.49,1111122 
DISL,ioos:station:DISL:CATA:1,2017-03-05T14:30:00Z,30.3085,-88.1395,2.019,8.47,1111122 
DISL,ioos:station:DISL:CATA:1,2017-03-05T15:00:00Z,30.3085,-88.1395,2.061,8.56,1111122 
DISL,ioos:station:DISL:CATA:1,2017-03-05T15:30:00Z,30.3085,-88.1395,2.077,8.74,1111122 
DISL,ioos:station:DISL:CATA:1,2017-03-05T16:00:00Z,30.3085,-88.1395,2.096,8.82,1111122 
DISL,ioos:station:DISL:CATA:1,2017-03-05T16:30:00Z,30.3085,-88.1395,2.121,8.93,1111122 
DISL,ioos:station:DISL:CATA:1,2017-03-05T17:00:00Z,30.3085,-88.1395,2.143,9.11,1111122 
DISL,ioos:station:DISL:CATA:1,2017-03-05T17:30:00Z,30.3085,-88.1395,2.189,9.18,1111122 
DISL,ioos:station:DISL:CATA:1,2017-03-05T18:00:00Z,30.3085,-88.1395,2.218,9.12,1111122 
DISL,ioos:station:DISL:CATA:1,2017-03-05T18:30:00Z,30.3085,-88.1395,2.24,9.03,1111122 
DISL,ioos:station:DISL:CATA:1,2017-03-05T19:00:00Z,30.3085,-88.1395,2.276,9.17,1111122 
DISL,ioos:station:DISL:CATA:1,2017-03-05T19:30:00Z,30.3085,-88.1395,2.277,9.28,1111122 
DISL,ioos:station:DISL:CATA:1,2017-03-05T20:00:00Z,30.3085,-88.1395,2.291,9.19,1111122 
DISL,ioos:station:DISL:CATA:1,2017-03-05T20:30:00Z,30.3085,-88.1395,2.305,9.14,1111122 
DISL,ioos:station:DISL:CATA:1,2017-03-05T21:00:00Z,30.3085,-88.1395,2.316,8.95,1111122 
DISL,ioos:station:DISL:CATA:1,2017-03-05T21:30:00Z,30.3085,-88.1395,2.327,8.82,1111122 
DISL,ioos:station:DISL:CATA:1,2017-03-05T22:00:00Z,30.3085,-88.1395,2.315,9.21,1111122 
DISL,ioos:station:DISL:CATA:1,2017-03-05T22:30:00Z,30.3085,-88.1395,2.313,9.23,1111122 
DISL,ioos:station:DISL:CATA:1,2017-03-05T23:00:00Z,30.3085,-88.1395,2.332,9.28,1111122 
DISL,ioos:station:DISL:CATA:1,2017-03-05T23:30:00Z,30.3085,-88.1395,2.307,9.35,1111122 
DISL,ioos:station:DISL:CATA:1,2017-03-06T00:00:00Z,30.3085,-88.1395,2.317,9.26,1111122 
DISL,ioos:station:DISL:CATA:1,2017-03-06T00:30:00Z,30.3085,-88.1395,2.298,9.2,1111122 
DISL,ioos:station:DISL:CATA:1,2017-03-06T01:00:00Z,30.3085,-88.1395,2.279,9.01,1111122 
DISL,ioos:station:DISL:CATA:1,2017-03-06T01:30:00Z,30.3085,-88.1395,2.265,9.09,1111122 
DISL,ioos:station:DISL:CATA:1,2017-03-06T02:00:00Z,30.3085,-88.1395,2.243,9.07,1111122 
DISL,ioos:station:DISL:CATA:1,2017-03-06T02:30:00Z,30.3085,-88.1395,2.204,9.03,1111122 
DISL,ioos:station:DISL:CATA:1,2017-03-06T03:00:00Z,30.3085,-88.1395,2.194,9.0,1111122 
DISL,ioos:station:DISL:CATA:1,2017-03-06T03:30:00Z,30.3085,-88.1395,2.165,8.81,1111122 
DISL,ioos:station:DISL:CATA:1,2017-03-06T04:00:00Z,30.3085,-88.1395,2.137,8.9,1111122 
DISL,ioos:station:DISL:CATA:1,2017-03-06T04:30:00Z,30.3085,-88.1395,2.112,8.9,1111122 
DISL,ioos:station:DISL:CATA:1,2017-03-06T05:00:00Z,30.3085,-88.1395,2.089,8.83,1111122 
DISL,ioos:station:DISL:CATA:1,2017-03-06T05:30:00Z,30.3085,-88.1395,2.082,8.82,1111122 
DISL,ioos:station:DISL:CATA:1,2017-03-06T06:00:00Z,30.3085,-88.1395,2.073,8.79,1111122 
DISL,ioos:station:DISL:CATA:1,2017-03-06T06:30:00Z,30.3085,-88.1395,2.045,8.74,1111122 
DISL,ioos:station:DISL:CATA:1,2017-03-06T07:00:00Z,30.3085,-88.1395,2.024,8.74,1111122 
DISL,ioos:station:DISL:CATA:1,2017-03-06T07:30:00Z,30.3085,-88.1395,2.018,8.7,1111122 
DISL,ioos:station:DISL:CATA:1,2017-03-06T08:00:00Z,30.3085,-88.1395,2.009,8.69,1111122 
DISL,ioos:station:DISL:CATA:1,2017-03-06T08:30:00Z,30.3085,-88.1395,1.991,8.69,1111122 
DISL,ioos:station:DISL:CATA:1,2017-03-06T09:00:00Z,30.3085,-88.1395,1.987,8.67,1111122 
DISL,ioos:station:DISL:CATA:1,2017-03-06T09:30:00Z,30.3085,-88.1395,1.978,8.62,1111122 
DISL,ioos:station:DISL:CATA:1,2017-03-06T10:00:00Z,30.3085,-88.1395,1.977,8.64,1111122 
DISL,ioos:station:DISL:CATA:1,2017-03-06T10:30:00Z,30.3085,-88.1395,1.975,8.64,1111122 
DISL,ioos:station:DISL:CATA:1,2017-03-06T11:00:00Z,30.3085,-88.1395,1.984,8.59,1111122 
DISL,ioos:station:DISL:CATA:1,2017-03-06T11:30:00Z,30.3085,-88.1395,1.995,8.61,1111122 
DISL,ioos:station:DISL:CATA:1,2017-03-06T12:00:00Z,30.3085,-88.1395,2.011,8.56,1111122 
DISL,ioos:station:DISL:CATA:1,2017-03-06T12:30:00Z,30.3085,-88.1395,2.019,8.49,1111122 
DISL,ioos:station:DISL:CATA:1,2017-03-06T13:00:00Z,30.3085,-88.1395,2.038,8.46,1111122 
DISL,ioos:station:DISL:CATA:1,2017-03-06T13:30:00Z,30.3085,-88.1395,2.058,8.35,1111122 
DISL,ioos:station:DISL:CATA:1,2017-03-06T14:00:00Z,30.3085,-88.1395,2.089,8.26,1111122 
DISL,ioos:station:DISL:CATA:1,2017-03-06T14:30:00Z,30.3085,-88.1395,2.099,8.36,1111122 
DISL,ioos:station:DISL:CATA:1,2017-03-06T15:00:00Z,30.3085,-88.1395,2.133,8.29,1111122 
DISL,ioos:station:DISL:CATA:1,2017-03-06T15:30:00Z,30.3085,-88.1395,2.162,8.16,1111122 